User: anonymous   Login
Location: Unspecified
(0.0000°N, 0.0000°E)
Time: 11:57:53
(UTC+00:00)
Language:

SBSS (USA 216) - Orbit

View from above orbital plane
View from above orbital plane
View from above satellite
View from above satellite

Ground track
Ground track

The orbit data is extracted from the following two-line orbital elements,

1 37168U 10048A   17261.83570284 0.00000100  00000-0  12796-4 0    05
2 37168  97.8786 125.1444 0004000 335.5538  24.4460 14.81425040    08
Epoch (UTC): 18 September 2017 20:03:24
Eccentricity: 0.0004000
inclination: 97.8786°
perigee height: 622 km
apogee height: 627 km
right ascension of ascending node: 125.1444°
argument of perigee: 335.5538°
revolutions per day: 14.81425040
mean anomaly at epoch: 24.4460°
orbit number at epoch: 0

The dashed part of the orbit path shows where the satellite is in the earth's shadow,  

DLR